GW4245 Weather Reports


Display with metric or nautical units.
time (UTC)temp
F
wind
direction
speed
MPH
gust
MPH
rain 1hr
in
rain 24hr
in
rain mn
in
humidity
%
barometer
mb
20260502123003 52 26 3.0 5.0 0.00 0.00 0.00 75 1014.1
20260502121505 52 27 2.0 5.0 0.00 0.00 0.00 77 1014.1
20260502114503 51 10 1.0 2.0 0.00 0.00 0.00 80 1014.2
20260502113004 50 17 1.0 3.0 0.00 0.00 0.00 81 1014.2
20260502111504 49 30 0.0 1.0 0.00 0.00 0.00 84 1014.2
20260502110004 49 30 0.0 1.0 0.00 0.00 0.00 84 1014.2
20260502104511 49 36 0.0 2.0 0.00 0.00 0.00 84 1013.9
20260502103006 48 246 0.0 2.0 0.00 0.00 0.00 84 1013.6
20260502101504 48 246 0.0 0.0 0.00 0.00 0.00 83 1013.6
20260502091508 49 246 0.0 0.0 0.00 0.00 0.00 82 1013.4
20260502071511 51 338 0.0 2.0 0.00 0.00 0.00 80 1013.1
20260502070008 51 216 0.0 2.0 0.00 0.00 0.00 80 1013.0
20260502064518 52 342 0.0 2.0 0.00 0.00 0.00 79 1012.9
20260502063017 52 203 0.0 0.0 0.00 0.00 0.00 77 1012.7
20260502061511 53 203 0.0 1.0 0.00 0.00 0.00 77 1012.8
20260502060012 53 166 0.0 3.0 0.00 0.00 0.00 76 1013.0
20260502054507 53 192 0.0 2.0 0.00 0.00 0.00 76 1013.1
20260502053017 54 181 0.0 4.0 0.00 0.00 0.00 76 1013.3
20260502051514 54 180 0.0 3.0 0.00 0.00 0.00 76 1013.5
20260502050015 54 197 0.0 4.0 0.00 0.00 0.00 75 1013.6
20260502044516 54 162 0.0 2.0 0.00 0.00 0.00 75 1013.7
20260502043017 54 162 0.0 2.0 0.00 0.00 0.00 1013.9
20260502041510 54 178 0.0 2.0 0.00 0.00 0.00 75 1013.9
20260502040006 54 182 1.0 3.0 0.00 0.00 0.00 74 1013.7
20260502034506 54 195 0.0 2.0 0.00 0.00 0.00 74 1013.8
20260502033012 54 224 0.0 2.0 0.00 0.00 0.00 75 1013.7
20260502031515 53 204 1.0 7.0 0.00 0.00 0.00 76 1013.5
20260502030001 53 179 1.0 3.0 0.00 0.00 0.00 77 1013.3
20260502024504 52 157 1.0 4.0 0.00 0.00 0.00 77 1013.4
20260502023006 52 155 0.0 2.0 0.00 0.00 0.00 74 1013.6
20260502021513 52 119 0.0 0.0 0.00 0.00 0.00 73 1013.4
20260502020025 53 119 0.0 2.0 0.00 0.00 0.00 72 1013.4
20260502014505 53 136 0.0 2.0 0.00 0.00 0.00 71 1013.3
20260502013003 54 127 0.0 3.0 0.00 0.00 0.00 70 1013.4
20260502011512 54 111 0.0 2.0 0.00 0.00 0.00 67 1013.2
20260502010014 55 69 0.0 2.0 0.00 0.00 0.00 66 1013.1
20260502004520 56 123 0.0 4.0 0.00 0.00 0.00 65 1012.8
20260502003024 57 130 1.0 6.0 0.00 0.00 0.00 64 1012.6
20260502001511 58 69 1.0 6.0 0.00 0.00 0.00 63 1012.7
20260502000017 59 124 1.0 7.0 0.00 0.00 0.00 63 1012.7
20260501234517 60 149 2.0 6.0 0.00 0.00 0.00 61 1012.6
20260501233021 61 88 1.0 6.0 0.00 0.00 0.00 59 1012.7
20260501231505 62 143 1.0 7.0 0.00 0.00 0.00 56 1012.5
20260501230010 63 91 2.0 9.0 0.00 0.00 0.00 58 1012.4
20260501224518 64 130 2.0 9.0 0.00 0.00 0.00 56 1012.4
20260501223018 66 133 4.0 11.0 0.00 0.00 0.00 51 1012.3
20260501221523 67 211 1.0 6.0 0.00 0.00 0.00 47 1012.4
20260501220008 67 227 2.0 6.0 0.00 0.00 0.00 43 1012.5
20260501214515 67 143 2.0 9.0 0.00 0.00 0.00 45 1012.5
20260501213025 68 111 3.0 10.0 0.00 0.00 0.00 43 1012.6
20260501211521 69 219 2.0 6.0 0.00 0.00 0.00 44 1012.6
20260501210006 69 153 1.0 5.0 0.00 0.00 0.00 41 1012.7
20260501204510 68 167 3.0 9.0 0.00 0.00 0.00 40 1012.8
20260501203017 68 210 2.0 8.0 0.00 0.00 0.00 38 1013.1
20260501201523 68 182 1.0 7.0 0.00 0.00 0.00 39 1013.3
20260501200027 67 119 4.0 8.0 0.00 0.00 0.00 44 1013.5
20260501194508 68 97 2.0 7.0 0.00 0.00 0.00 46 1013.5
20260501193036 68 210 2.0 6.0 0.00 0.00 0.00 46 1014.0
20260501191519 68 115 2.0 8.0 0.00 0.00 0.00 43 1014.1
20260501190005 67 193 2.0 8.0 0.00 0.00 0.00 45 1014.4
20260501184527 67 202 3.0 6.0 0.00 0.00 0.00 38 1014.6
20260501183027 66 141 2.0 7.0 0.00 0.00 0.00 39 1014.9
20260501181502 66 81 2.0 4.0 0.00 0.00 0.00 41 1015.1
20260501180004 66 235 4.0 7.0 0.00 0.00 0.00 40 1015.2
20260501174528 67 231 2.0 4.0 0.00 0.00 0.00 40 1015.1
20260501173029 66 109 2.0 8.0 0.00 0.00 0.00 42 1015.3
20260501171516 67 89 1.0 6.0 0.00 0.00 0.00 42 1015.3
20260501170023 65 248 1.0 5.0 0.00 0.00 0.00 47 1015.5
20260501164527 64 152 2.0 6.0 0.00 0.00 0.00 42 1015.6
20260501163039 63 240 1.0 4.0 0.00 0.00 0.00 44 1015.8
20260501161526 63 338 2.0 4.0 0.00 0.00 0.00 44 1015.9
20260501160020 62 101 2.0 8.0 0.00 0.00 0.00 43 1016.1
20260501154527 61 34 1.0 7.0 0.00 0.00 0.00 42 1016.4
20260501153028 63 219 2.0 5.0 0.00 0.00 0.00 41 1016.6
20260501151513 61 96 3.0 8.0 0.00 0.00 0.00 44 1016.6
20260501150017 61 97 2.0 6.0 0.00 0.00 0.00 43 1016.8
20260501144530 60 313 0.0 4.0 0.00 0.00 0.00 48 1016.7
20260501143013 60 334 3.0 7.0 0.00 0.00 0.00 44 1016.7